Weather History for Chicago Executive, IL

Change the Weather History Date:

Monday, October 3, 2011

  Actual Average Record
Temperature  
Mean Temperature 56 °F 57 °F  
Max Temperature 68 °F 67 °F 87 °F (1997)
Min Temperature 45 °F 47 °F 35 °F (2004)
Degree Days  
Heating Degree Days 8 9  
Month to date heating degree days 26  
Since 1 July heating degree days 138  
Cooling Degree Days 0 1  
Month to date cooling degree days 3  
Year to date cooling degree days 781  
Growing Degree Days 6 (Base 50)    
Moisture  
Dew Point 46 °F    
Average Humidity 74    
Maximum Humidity 90    
Minimum Humidity 40    
Precipitation  
Precipitation 0.00 in 0.13 in 1.06 in (2014)
Month to date precipitation 0.39  
Year to date precipitation 26.08  
Sea Level Pressure  
Sea Level Pressure 30.23 in    
Wind  
Wind Speed 2 mph (NE)    
Max Wind Speed 12 mph    
Max Gust Speed -    
Visibility 10 miles    
Events      
T = Trace of Precipitation, MM = Missing Value Source: NWS Daily Summary

Daily Weather History Graph

Daily Weather History Graph

Search for Another Location

Airport:

Trip Planner

Search our weather history database for the weather conditions in past years. The results will help you decide how hot, cold, wet, or windy it might be!

Date:

Astronomy

Oct. 03, 2011 Rise Set
Actual Time 6:50 AM CDT 6:30 PM CDT
Civil Twilight 6:22 AM CDT 6:58 PM CDT
Nautical Twilight 5:50 AM CDT 7:30 PM CDT
Astronomical Twilight 5:17 AM CDT 8:03 PM CDT
Moon 1:53 PM CDT (10/3) 11:27 PM CDT (10/3)
Length of Visible Light 12h 35m
Length of Day
11h 39m
Waxing Crescent, 45% of the Moon is Illuminated
Oct 3
Waxing Crescent
Oct 3
First Quarter
Oct 11
Full
Oct 19
Last Quarter
Oct 26
New

Hourly Weather History & Observations

Time (CDT) Temp. Dew Point Humidity Pressure Visibility Wind Dir Wind Speed Gust Speed Precip Events Conditions
12:52 AM 46.0 °F 43.0 °F 89% 30.17 in 10.0 mi Calm Calm - N/A   Clear
2:52 AM 46.0 °F 42.1 °F 86% 30.18 in 10.0 mi Calm Calm - N/A   Clear
3:52 AM 46.9 °F 42.1 °F 83% 30.17 in 10.0 mi Calm Calm - N/A   Clear
4:52 AM 45.0 °F 42.1 °F 90% 30.19 in 10.0 mi Calm Calm - N/A   Clear
5:52 AM 46.0 °F 41.0 °F 83% 30.20 in 10.0 mi Calm Calm - N/A   Clear
6:52 AM 45.0 °F 41.0 °F 86% 30.22 in 10.0 mi Calm Calm - N/A   Clear
7:52 AM 50.0 °F 44.1 °F 80% 30.23 in 10.0 mi Calm Calm - N/A   Clear
8:52 AM 55.0 °F 46.0 °F 72% 30.22 in 10.0 mi NW 5.8 mph - N/A   Clear
9:52 AM 60.1 °F 46.9 °F 62% 30.25 in 10.0 mi NNE 5.8 mph - N/A   Clear
10:52 AM 64.0 °F 48.9 °F 58% 30.24 in 10.0 mi ENE 5.8 mph - N/A   Clear
11:52 AM 64.9 °F 46.9 °F 52% 30.24 in 10.0 mi NE 4.6 mph - N/A   Clear
1:52 PM 68.0 °F 43.0 °F 40% 30.21 in 10.0 mi NE 6.9 mph - N/A   Clear
2:52 PM 66.9 °F 46.0 °F 47% 30.22 in 10.0 mi NE 9.2 mph - N/A   Clear
3:52 PM 64.0 °F 53.1 °F 67% 30.23 in 10.0 mi NE 11.5 mph - N/A   Clear
4:52 PM 63.0 °F 48.0 °F 58% 30.23 in 10.0 mi ENE 8.1 mph - N/A   Clear
5:52 PM 60.1 °F 48.9 °F 67% 30.24 in 10.0 mi NE 8.1 mph - N/A   Clear
6:52 PM 57.0 °F 50.0 °F 77% 30.24 in 10.0 mi Calm Calm - N/A   Clear
7:52 PM 54.0 °F 48.9 °F 83% 30.25 in 10.0 mi Calm Calm - N/A   Unknown
8:52 PM 51.1 °F 46.9 °F 86% 30.25 in 10.0 mi Calm Calm - N/A   Unknown
9:52 PM 50.0 °F 46.0 °F 86% 30.26 in 10.0 mi Calm Calm - N/A   Unknown
10:52 PM 50.0 °F 46.0 °F 86% 30.26 in 10.0 mi Calm Calm - N/A   Unknown
11:52 PM 48.0 °F 45.0 °F 89% 30.26 in 10.0 mi Calm Calm - N/A   Unknown